Location: Peralejo
(40.5415°N, 4.1259°W)
Time: 15:57:22
(UTC+00:00)

CZ-4B R/B - Pass Details

Date: 18 April 2024
Orbit: 465 x 616 km, 97.9° (Epoch: 24 May)

Event Time Altitude Azimuth Distance (km) Brightness Sun altitude
Rises 19:39:42 0° 177° (S) 2,619 6.0 -8.1°
Reaches altitude 10° 19:41:52 10° 182° (S) 1,713 5.1 -8.5°
Maximum altitude 19:45:26 51° 259° (W) 625 3.5 -9.1°
Drops below altitude 10° 19:48:55 10° 337° (NNW) 1,661 6.0 -9.7°
Sets 19:51:00 0° 342° (NNW) 2,530 6.9 -10.1°
